[[{"header":{"parameterUnit":"m.s-1","parameterCategory":1,"la1":30.2992,"la2":30.254,"lo1":-89.0895,"lo2":-89.0443,"dy":0.0025,"dx":0.0025,"nx":19,"ny":19,"refTime":"2026-03-19T03:00:00:Z","depth":0,"parameterNumber":2,"parameterNumberName":"U-component_of_WINDS"},"data":[0,0,0,1.8557,1.8558,1.8604,1.8604,1.8656,1.8656,0,0,0,0,0,0,0,0,0,0,0,1.8541,1.8542,1.8557,1.8558,1.8604,1.8604,1.8656,1.8656,0,0,0,0,0,0,0,0,0,0,0,1.8541,1.8542,1.8542,1.8558,1.8604,1.8604,1.8656,1.8623,0,0,0,0,0,0,0,0,0,0,1.8579,1.8564,1.8542,1.8542,1.8558,1.8604,1.8604,1.8621,1.8625,1.8633,0,1.8642,0,1.865,1.866,1.866,0,0,0,1.8559,1.8561,1.8575,1.8542,1.8559,1.8604,1.8583,1.8623,1.8627,1.8637,1.8642,1.8644,1.8651,1.866,1.866,1.8706,1.8707,0,0,1.8556,1.8548,1.8572,1.8578,1.8573,1.8582,1.8585,1.8626,1.863,1.8643,1.8646,1.8652,1.866,1.8661,1.8706,1.8707,0,0,0,1.8548,1.8547,1.856,1.8575,1.8584,1.8583,1.8586,1.8628,1.8633,1.8646,1.8652,1.866,1.8661,1.8706,1.8706,1.8708,0,0,0,1.8547,1.8542,1.8559,1.8554,1.8584,1.8607,1.8588,1.863,1.8635,1.8652,1.8661,1.8662,1.8706,1.8706,1.8707,1.8709,0,0,0,1.8539,1.8541,1.8548,1.8554,1.8574,1.8607,1.8614,1.8632,1.8639,1.866,1.8662,1.8706,1.8706,1.8707,1.8709,1.8718,0,0,0,1.8528,1.8548,1.8547,1.8572,1.8573,1.8608,1.8614,1.864,1.8659,1.8661,1.8706,1.8706,1.8707,1.8708,1.8718,1.8724,1.8726,0,0,1.8549,1.8551,1.8566,1.8566,1.8599,1.8602,1.8634,1.8658,1.8666,1.8692,1.8693,1.8707,1.8709,1.8718,1.8744,1.8746,0,0,0,1.857,1.858,1.859,1.8608,1.8627,1.8642,1.8662,1.867,1.8692,1.8679,1.8714,1.8715,1.8721,1.8724,1.8726,1.873,1.8708,1.8708,1.8708,1.8588,1.8598,1.8622,1.8637,1.8654,1.8673,1.8686,1.87,1.8705,1.8713,1.8721,1.8736,1.8739,1.8741,1.8745,1.8726,1.8726,1.8726,1.8726,1.8619,1.8634,1.864,1.8665,1.8674,1.8695,1.8713,1.8716,1.8735,1.8731,1.8737,1.8731,1.8742,1.8747,1.8726,1.8726,1.8726,1.8726,1.8726,1.8631,1.864,1.865,1.8675,1.8692,1.8706,1.8724,1.8732,1.8739,1.8744,1.8752,1.8752,1.8751,1.8747,1.8748,1.8748,1.8748,1.8748,1.8748,1.864,1.8651,1.8666,1.8686,1.8697,1.8712,1.873,1.874,1.8754,1.8758,1.8758,1.876,1.8742,1.8737,1.8748,1.8748,1.8748,1.8748,1.8748,1.8665,1.866,1.8683,1.8694,1.8717,1.8733,1.8742,1.8762,1.8772,1.878,1.8781,1.8767,1.8768,1.8767,1.8762,1.878,1.878,1.878,1.878,1.8674,1.8676,1.87,1.8717,1.8734,1.8745,1.8767,1.878,1.8792,1.8798,1.8797,1.8792,1.879,1.8792,1.8791,1.8786,1.881,1.881,1.881,1.8689,1.8693,1.8712,1.8725,1.8743,1.8758,1.8779,1.8795,1.8808,1.8811,1.8802,1.8801,1.8793,1.879,1.8793,1.879,1.8782,0,0]},{"header":{"parameterUnit":"m.s-1","parameterCategory":1,"la1":30.2992,"la2":30.254,"lo1":-89.0895,"lo2":-89.0443,"dy":0.0025,"dx":0.0025,"nx":19,"ny":19,"refTime":"2026-03-19T03:00:00:Z","depth":0,"parameterNumber":3,"parameterNumberName":"V-component_of_WINDS"},"data":[0,0,0,1.793,1.793,1.7927,1.7927,1.793,1.793,0,0,0,0,0,0,0,0,0,0,0,1.7936,1.7936,1.793,1.793,1.7927,1.7927,1.793,1.793,0,0,0,0,0,0,0,0,0,0,0,1.7936,1.7936,1.7936,1.793,1.7927,1.7927,1.793,1.793,0,0,0,0,0,0,0,0,0,0,1.7931,1.7942,1.7936,1.7936,1.793,1.7928,1.7927,1.7929,1.793,1.7934,0,1.7942,0,1.7936,1.7931,1.7931,0,0,0,1.7926,1.7942,1.7937,1.7936,1.793,1.7928,1.7927,1.7929,1.793,1.7935,1.7942,1.7941,1.7936,1.7931,1.7931,1.7975,1.7976,0,0,1.7926,1.7938,1.7937,1.7937,1.794,1.7928,1.7927,1.7929,1.7937,1.7942,1.7941,1.7936,1.7931,1.7931,1.7975,1.7975,0,0,0,1.7929,1.7939,1.7933,1.7937,1.7936,1.7928,1.7927,1.7937,1.7934,1.7941,1.7936,1.7931,1.7931,1.7974,1.7975,1.8006,0,0,0,1.7929,1.794,1.7933,1.7941,1.7936,1.7937,1.7935,1.7934,1.7934,1.7936,1.7931,1.7931,1.7974,1.7975,1.8005,1.8019,0,0,0,1.7934,1.7941,1.7943,1.7941,1.7941,1.7937,1.7934,1.7934,1.7931,1.7931,1.7932,1.7974,1.7975,1.8003,1.8016,1.8033,0,0,0,1.7943,1.7971,1.7943,1.7972,1.7941,1.7957,1.7934,1.7945,1.7949,1.7931,1.7974,1.7975,1.8002,1.8015,1.8031,1.8049,1.8057,0,0,1.7985,1.7977,1.7993,1.7967,1.7992,1.7956,1.7984,1.7976,1.7964,1.7972,1.7973,1.8005,1.8016,1.8033,1.8104,1.8111,0,0,0,1.801,1.8021,1.8025,1.803,1.8024,1.802,1.8006,1.8002,1.8008,1.7971,1.8016,1.8022,1.8031,1.8039,1.8045,1.8051,1.7979,1.7979,1.7979,1.8087,1.807,1.8095,1.8078,1.8082,1.8067,1.8068,1.806,1.8043,1.8054,1.8056,1.8101,1.811,1.8115,1.8121,1.8064,1.8064,1.8065,1.8065,1.8146,1.8159,1.8134,1.8149,1.813,1.8142,1.8127,1.8114,1.8121,1.8099,1.8106,1.8082,1.8123,1.8128,1.8067,1.8066,1.8066,1.8066,1.8066,1.8193,1.8196,1.8192,1.8195,1.8199,1.818,1.8188,1.8171,1.8155,1.8162,1.8161,1.8161,1.8157,1.8163,1.8163,1.8164,1.8164,1.8164,1.8164,1.8244,1.8238,1.8247,1.8242,1.8242,1.8239,1.8222,1.8221,1.8214,1.8201,1.8201,1.8181,1.8131,1.8118,1.8166,1.8166,1.8166,1.8165,1.8165,1.8308,1.829,1.8304,1.8304,1.8296,1.8299,1.8278,1.8276,1.8272,1.8276,1.8254,1.822,1.8209,1.8205,1.8193,1.8259,1.8259,1.8259,1.8259,1.8347,1.834,1.835,1.8349,1.8347,1.8329,1.8342,1.8329,1.8312,1.8308,1.8296,1.828,1.8276,1.8268,1.8262,1.8251,1.833,1.833,1.833,1.8384,1.8376,1.8392,1.8376,1.8368,1.8361,1.8372,1.8371,1.8349,1.8332,1.8304,1.8301,1.8275,1.8268,1.8251,1.8241,1.8221,0,0]}]]